When you browse on this site, cookies collect data to enhance your experience and personalize the content and advertising you see.
Visit our Privacy Policy to learn more. By continuing to use the site, you agree to this use of cookies and data.
  • In Switzerland
  • List of Countries
  • For 7 days
  • Water Temperature
  • Satellite Maps
  • Weather Map
  • Weather Widgets
  • user-avatar
    Login

    Hourly Weather Nicosia

    Today, 24 June, Monday

    Time Temperature Precipitation Wind Pressure Humidity
    00:00 +30°C° 0 mm 6 mps 743 mmHg 43%
    01:00 +30°C° 0 mm 6 mps 743 mmHg 43%
    02:00 +29°C° 0 mm 5 mps 743 mmHg 44%
    03:00 +29°C° 0 mm 5 mps 743 mmHg 44%
    04:00 +29°C° 0 mm 4 mps 743 mmHg 45%
    05:00 +28°C° 0 mm 4 mps 743 mmHg 45%
    06:00 +30°C° 0 mm 3 mps 743 mmHg 41%
    07:00 +33°C° 0 mm 3 mps 743 mmHg 37%
    08:00 +34°C° 0 mm 2 mps 743 mmHg 33%
    09:00 +35°C° 0 mm 2 mps 744 mmHg 33%
    10:00 +36°C° 0 mm 2 mps 744 mmHg 32%
    11:00 +36°C° 0 mm 1 mps 744 mmHg 31%
    12:00 +36°C° 0 mm 1 mps 744 mmHg 34%
    13:00 +36°C° 0 mm 1 mps 743 mmHg 37%
    14:00 +36°C° 0 mm 1 mps 743 mmHg 39%
    15:00 +36°C° 0 mm 2 mps 743 mmHg 40%
    16:00 +36°C° 0 mm 3 mps 743 mmHg 42%
    17:00 +35°C° 0 mm 4 mps 742 mmHg 43%
    18:00 +34°C° 0 mm 4 mps 743 mmHg 46%
    19:00 +33°C° 0 mm 4 mps 743 mmHg 49%
    20:00 +32°C° 0 mm 5 mps 743 mmHg 52%
    21:00 +32°C° 0 mm 5 mps 743 mmHg 46%
    22:00 +32°C° 0 mm 5 mps 743 mmHg 39%
    23:00 +33°C° 0 mm 5 mps 743 mmHg 33%

    Tomorrow, 25 June, Tuesday

    Time Temperature Precipitation Wind Pressure Humidity
    00:00 +32°C° 0 mm 6 mps 743 mmHg 33%
    01:00 +32°C° 0 mm 6 mps 743 mmHg 33%
    02:00 +32°C° 0 mm 6 mps 742 mmHg 34%
    03:00 +30°C° 0 mm 5 mps 742 mmHg 34%
    04:00 +30°C° 0 mm 4 mps 742 mmHg 35%
    05:00 +30°C° 0 mm 3 mps 742 mmHg 36%
    06:00 +31°C° 0 mm 3 mps 742 mmHg 34%
    07:00 +34°C° 0 mm 2 mps 743 mmHg 32%
    08:00 +36°C° 0 mm 2 mps 743 mmHg 30%
    09:00 +36°C° 0 mm 2 mps 743 mmHg 32%
    10:00 +36°C° 0 mm 1 mps 743 mmHg 33%
    11:00 +37°C° 0 mm 1 mps 743 mmHg 35%
    12:00 +37°C° 0 mm 1 mps 743 mmHg 35%
    13:00 +38°C° 0 mm 2 mps 742 mmHg 35%
    14:00 +38°C° 0 mm 2 mps 742 mmHg 35%
    15:00 +37°C° 0 mm 3 mps 742 mmHg 33%
    16:00 +37°C° 0 mm 3 mps 742 mmHg 32%
    17:00 +37°C° 0 mm 4 mps 742 mmHg 31%
    18:00 +35°C° 0 mm 5 mps 742 mmHg 35%
    19:00 +34°C° 0 mm 5 mps 742 mmHg 40%
    20:00 +32°C° 0 mm 5 mps 742 mmHg 45%
    21:00 +33°C° 0 mm 5 mps 742 mmHg 43%
    22:00 +33°C° 0 mm 5 mps 742 mmHg 41%
    23:00 +33°C° 0 mm 5 mps 742 mmHg 39%

    Day after tomorrow, 26 June, Wednesday

    Time Temperature Precipitation Wind Pressure Humidity
    00:00 +33°C° 0 mm 5 mps 742 mmHg 38%
    01:00 +33°C° 0 mm 6 mps 742 mmHg 38%
    02:00 +33°C° 0 mm 6 mps 742 mmHg 37%
    03:00 +32°C° 0 mm 5 mps 742 mmHg 39%
    04:00 +30°C° 0 mm 4 mps 742 mmHg 42%
    05:00 +30°C° 0 mm 3 mps 742 mmHg 44%
    06:00 +33°C° 0 mm 3 mps 742 mmHg 40%
    07:00 +35°C° 0 mm 3 mps 742 mmHg 36%
    08:00 +37°C° 0 mm 3 mps 743 mmHg 32%
    09:00 +38°C° 0 mm 3 mps 743 mmHg 32%
    10:00 +39°C° 0 mm 2 mps 743 mmHg 31%
    11:00 +39°C° 0 mm 2 mps 743 mmHg 31%
    12:00 +39°C° 0 mm 3 mps 743 mmHg 33%
    13:00 +39°C° 0 mm 3 mps 742 mmHg 35%
    14:00 +40°C° 0 mm 4 mps 742 mmHg 37%
    15:00 +39°C° 0 mm 5 mps 742 mmHg 38%
    16:00 +37°C° 0 mm 5 mps 742 mmHg 39%
    17:00 +38°C° 0 mm 6 mps 742 mmHg 40%
    18:00 +36°C° 0 mm 7 mps 742 mmHg 43%
    19:00 +35°C° 0 mm 8 mps 742 mmHg 46%
    20:00 +33°C° 0 mm 8 mps 742 mmHg 48%
    21:00 +34°C° 0 mm 9 mps 742 mmHg 46%
    22:00 +34°C° 0 mm 9 mps 742 mmHg 44%
    23:00 +34°C° 0 mm 9 mps 742 mmHg 42%

    27 June, Thursday

    Time Temperature Precipitation Wind Pressure Humidity
    00:00 +34°C° 0 mm 9 mps 741 mmHg 40%
    01:00 +33°C° 0 mm 9 mps 741 mmHg 37%
    02:00 +33°C° 0 mm 9 mps 741 mmHg 35%
    03:00 +33°C° 0 mm 8 mps 741 mmHg 37%
    04:00 +32°C° 0 mm 7 mps 741 mmHg 40%
    05:00 +30°C° 0 mm 6 mps 741 mmHg 42%
    06:00 +33°C° 0 mm 6 mps 741 mmHg 39%
    07:00 +35°C° 0 mm 5 mps 741 mmHg 36%
    08:00 +37°C° 0 mm 5 mps 741 mmHg 33%
    09:00 +39°C° 0 mm 5 mps 741 mmHg 31%
    10:00 +40°C° 0 mm 6 mps 741 mmHg 30%
    11:00 +41°C° 0 mm 6 mps 741 mmHg 29%
    12:00 +41°C° 0 mm 7 mps 741 mmHg 28%
    13:00 +41°C° 0 mm 8 mps 740 mmHg 28%
    14:00 +41°C° 0 mm 8 mps 740 mmHg 27%
    15:00 +42°C° 0 mm 9 mps 740 mmHg 28%
    16:00 +42°C° 0 mm 10 mps 740 mmHg 28%
    17:00 +42°C° 0 mm 11 mps 740 mmHg 28%
    18:00 +39°C° 0 mm 11 mps 740 mmHg 29%
    19:00 +38°C° 0 mm 11 mps 739 mmHg 30%
    20:00 +36°C° 0 mm 11 mps 739 mmHg 31%
    21:00 +36°C° 0 mm 10 mps 740 mmHg 32%
    22:00 +34°C° 0 mm 10 mps 740 mmHg 33%
    23:00 +34°C° 0 mm 10 mps 740 mmHg 34%

    28 June, Friday

    Time Temperature Precipitation Wind Pressure Humidity
    00:00 +33°C° 0 mm 9 mps 739 mmHg 36%
    01:00 +32°C° 0 mm 7 mps 739 mmHg 38%
    02:00 +32°C° 0 mm 6 mps 739 mmHg 39%
    03:00 +30°C° 0 mm 5 mps 739 mmHg 42%
    04:00 +30°C° 0 mm 4 mps 739 mmHg 44%
    05:00 +29°C° 0 mm 3 mps 739 mmHg 47%
    06:00 +31°C° 0 mm 3 mps 739 mmHg 42%
    07:00 +34°C° 0 mm 3 mps 739 mmHg 38%
    08:00 +36°C° 0 mm 3 mps 739 mmHg 34%
    09:00 +37°C° 0 mm 4 mps 739 mmHg 32%
    10:00 +39°C° 0 mm 5 mps 739 mmHg 30%
    11:00 +39°C° 0 mm 6 mps 738 mmHg 29%
    12:00 +40°C° 0 mm 7 mps 738 mmHg 29%
    13:00 +40°C° 0 mm 7 mps 738 mmHg 29%
    14:00 +40°C° 0 mm 8 mps 738 mmHg 29%
    15:00 +40°C° 0 mm 9 mps 738 mmHg 29%
    16:00 +40°C° 0 mm 10 mps 738 mmHg 29%
    17:00 +40°C° 0 mm 10 mps 737 mmHg 29%
    18:00 +38°C° 0 mm 10 mps 738 mmHg 29%
    19:00 +37°C° 0 mm 10 mps 738 mmHg 29%
    20:00 +34°C° 0 mm 10 mps 738 mmHg 29%
    21:00 +34°C° 0 mm 10 mps 738 mmHg 30%
    22:00 +34°C° 0 mm 10 mps 738 mmHg 31%
    23:00 +33°C° 0 mm 10 mps 738 mmHg 32%

    29 June, Saturday

    Time Temperature Precipitation Wind Pressure Humidity
    00:00 +33°C° 0 mm 8 mps 738 mmHg 35%
    01:00 +32°C° 0 mm 6 mps 738 mmHg 38%
    02:00 +30°C° 0 mm 5 mps 737 mmHg 40%
    03:00 +30°C° 0 mm 4 mps 737 mmHg 44%
    04:00 +29°C° 0 mm 3 mps 738 mmHg 47%
    05:00 +29°C° 0 mm 2 mps 738 mmHg 51%
    06:00 +31°C° 0 mm 2 mps 738 mmHg 46%
    07:00 +33°C° 0 mm 1 mps 738 mmHg 40%
    08:00 +35°C° 0 mm 1 mps 738 mmHg 35%
    09:00 +36°C° 0 mm 1 mps 738 mmHg 33%
    10:00 +38°C° 0 mm 2 mps 738 mmHg 30%
    11:00 +39°C° 0 mm 2 mps 739 mmHg 27%
    12:00 +39°C° 0 mm 3 mps 738 mmHg 26%
    13:00 +40°C° 0 mm 5 mps 738 mmHg 25%
    14:00 +41°C° 0 mm 6 mps 738 mmHg 25%
    15:00 +41°C° 0 mm 6 mps 738 mmHg 23%
    16:00 +40°C° 0 mm 7 mps 738 mmHg 22%
    17:00 +40°C° 0 mm 7 mps 738 mmHg 21%
    18:00 +39°C° 0 mm 8 mps 738 mmHg 23%
    19:00 +37°C° 0 mm 8 mps 738 mmHg 25%
    20:00 +34°C° 0 mm 8 mps 738 mmHg 27%
    21:00 +34°C° 0 mm 7 mps 738 mmHg 28%
    22:00 +33°C° 0 mm 7 mps 739 mmHg 30%
    23:00 +32°C° 0 mm 7 mps 739 mmHg 31%
    Show more